Tracking 21472 objects as of 22-Sep-2020
HD Live streaming from Space Station
objects crossing your sky now

GLOBAL-8

Track GLOBAL-8 now!
10-day predictions


NORAD ID: 46089
Int'l Code: 2020-055BQ
Perigee: 412.8 km
Apogee: 413.9 km
Inclination: 53.0 °
Period: 92.7 minutes
Semi major axis: 6784 km
RCS: Unknown
Launch date: August 7, 2020
Source: United States (US)
Launch site: AIR FORCE EASTERN TEST RANGE (AFETR)
aabbcc
Your satellite tracking list
Your tracking list is empty




NASA's NSSDC Master Catalog

Two Line Element Set (TLE):
1 46089U 20055BQ  20265.94524759  .00003201  00000-0  56611-4 0  9998
2 46089  53.0074  69.6725 0000786  40.4776 319.6291 15.53612741 11718
Source of the keplerian elements: AFSPC